Regional Weather Roundup
Issued by NWS

Home | Current Version | Previous Version | Graphics & Text | Print | Product List | Glossary On
Versions: 1 2 3 4 5 6 7 8 9 10 11 12 13 14 15 16 17 18 19 20 21 22 23 24 25 26 27 28 29 30 31 32 33 34 35 36 37 38 39 40 41 42 43 44 45 46 47 48 49 50
000
ASUS43 KIND 222009
RWRIN

WEATHER ROUNDUP FOR INDIANA
NATIONAL WEATHER SERVICE INDIANAPOLIS IN
300 PM EST WED FEB 22 2017

NOTE: "FAIR" INDICATES FEW OR NO CLOUDS BELOW 12,000 FEET WITH NO
SIGNIFICANT WEATHER AND/OR OBSTRUCTIONS TO VISIBILITY.

* - STATION DOES NOT REPORT WEATHER SUCH AS PRECIPITATION OR FOG.

+ - STATION NOT QUALITY CONTROLLED BY THE NATIONAL WEATHER SERVICE.
    USE DATA WITH CAUTION...ESPECIALLY DEWPOINT AND RELATIVE
    HUMIDITY OBSERVATIONS.

INZ001>003-010>013-019-020-222100-
NORTHWEST INDIANA

CITY           SKY/WX    TMP DP  RH WIND       PRES   REMARKS
GARY /AIRPORT/ CLOUDY    63  54  72 S9        29.73F HAZE
KNOX *+        MOSUNNY   63  36  36 S14       29.74F
LA PORTE +     PTSUNNY   61  55  81 S9        29.74F
MICHIGAN CITY+ CLOUDY    63  54  72 SW12      29.73F
MONTICELLO +   PTSUNNY   65  54  66 S8        29.75F
RENSSELAER +   PTSUNNY   68  55  64 SW15      29.74F
VALPARAISO     PTSUNNY   64  56  75 SW15      29.74F HAZE

$$

LMZ046-743>745-222100-
SOUTHERN LAKE MICHIGAN

STATION/POSITION TIME  TEMP    WIND        PRES    WAVE
                       AIR SEA DIR/SP/G            HT
                 (UTC) (F)     (DEG/KT/KT) (MB)    (FT)
BURNS HARBOR     1940   59     210/ 13/ 23 1007.5F
MICHIGAN CITY    1940   62     190/ 15/ 19   N/A

$$

INZ004-005-014>016-021>024-222100-
NORTH CENTRAL INDIANA

CITY           SKY/WX    TMP DP  RH WIND       PRES   REMARKS
ELKHART        CLOUDY    59  54  82 SW8       29.76F
GOSHEN         CLOUDY    63  53  70 W13       29.75F
LOGANSPORT +   CLOUDY    61  54  77 SW12      29.78F
PERU/GRISSOM   CLOUDY    61  59  94 SW13      29.76R
ROCHESTER +    CLOUDY    61  55  82 SW9       29.77F
SOUTH BEND     CLOUDY    60  54  80 S10       29.75F
WARSAW +       CLOUDY    61  52  72 SW7       29.76F

$$

INZ006>009-017-018-025>027-222100-
NORTHEAST INDIANA

CITY           SKY/WX    TMP DP  RH WIND       PRES   REMARKS
ANGOLA *+      CLOUDY    61  55  82 SW8       29.76F
AUBURN +       CLOUDY    61  52  72 SW5       29.78S
FORT WAYNE     CLOUDY    63  53  70 SW10      29.77F
HUNTINGTON +   CLOUDY    62  55  77 SW8       29.77S
KENDALLVILLE + CLOUDY    60  54  78 SW10      29.77F

$$

INZ028-029-035-036-043>045-051>053-222100-
WEST CENTRAL INDIANA

CITY           SKY/WX    TMP DP  RH WIND       PRES   REMARKS
LAFAYETTE      PTSUNNY   65  55  70 S13       29.76F
TERRE HAUTE    PTSUNNY   69  55  60 S15G21    29.77F

$$

INZ030>032-037>040-046>048-054>057-064-065-222100-
CENTRAL INDIANA

CITY           SKY/WX    TMP DP  RH WIND       PRES   REMARKS
ANDERSON       CLOUDY    61  55  82 S12       29.79F
CP ATTERBURY + PTSUNNY   66  54  63 S6        29.80F
COLUMBUS       CLOUDY    63  59  88 S9        29.81F
FISHERS *+     PTSUNNY   64  57  77 SW9G17    29.78F
FRANKFORT +    CLOUDY    66  56  71 SW12      29.79F
GREENWOOD *+   MOSUNNY   65  56  72 S9G16     29.80F
INDIANAPOLIS   PTSUNNY   67  55  65 S10       29.78F
-EAGLE CREEK   PTSUNNY   67  54  63 S9        29.77F
KOKOMO +       CLOUDY    61  55  82 SW15      29.79F
MARION +       CLOUDY    61  54  75 SW14      29.79S
MT COMFORT *+  CLOUDY    64  55  72 S13       29.79F
SHELBYVILLE    CLOUDY    66  55  67 S14       29.79F
ZIONSVILLE +   PTSUNNY   64  55  70 SW12      29.78F

$$

INZ033-034-041-042-049-050-058-059-222100-
EAST CENTRAL INDIANA

CITY           SKY/WX    TMP DP  RH WIND       PRES   REMARKS
MUNCIE         CLOUDY    62  54  74 SW12      29.78F

$$

INZ060-061-067>069-081>083-085>088-222100-
SOUTHWEST INDIANA

CITY           SKY/WX    TMP DP  RH WIND       PRES   REMARKS
EVANSVILLE     MOSUNNY   72  56  57 S14       29.80F
HUNTINGBURG *+ PTSUNNY   70  57  64 S8        29.81F
WASHINGTON +   PTSUNNY   71  55  58 S8G17     29.78F

$$

INZ062-063-066-070>080-084-089>092-222100-
SOUTH CENTRAL AND SOUTHEAST INDIANA

CITY           SKY/WX    TMP DP  RH WIND       PRES   REMARKS
BEDFORD +      CLOUDY   N/A N/A N/A S7        29.80F
BLOOMINGTON    PTSUNNY   69  55  60 S12       29.78F
MADISON *+     PTSUNNY   68  54  60 S5        29.84F
NORTH VERNON + CLOUDY   N/A N/A N/A SW7       29.83F
SEYMOUR +      PTSUNNY   68  57  68 S5        29.81F

$$





USA.gov is the U.S. government's official web portal to all federal, state and local government web resources and services.